[[{"header":{"parameterUnit":"m.s-1","parameterCategory":1,"la1":30.2991,"la2":30.254,"lo1":-89.0895,"lo2":-89.0444,"dy":0.0017,"dx":0.0017,"nx":28,"ny":28,"refTime":"2023-03-27T15:00:00:Z","depth":0,"parameterNumber":2,"parameterNumberName":"U-component_of_WINDS"},"data":[0,0,0,0,0,0,0,0,0,0,0,0,0,0,0,0,0,0,0,0,0,0,0,0,0,0,0,0,0,0,0,0,0,0,0,0,0,0,0,0,0,0,0,0,0,0,0,0,0,0,0,0,0,0,0,0,0,0,0.2462,0.2463,0,0.2513,0.2513,0.2514,0.2541,0.2541,0.2541,0.2541,0.2595,0.2596,0.2598,0,0,0,0,0,0,0,0,0,0,0,0,0,0.2392,0.2393,0.2462,0.2463,0.2463,0.2513,0.2513,0.2514,0.2541,0.2541,0.2541,0.2541,0.2595,0.2596,0.2598,0,0,0,0,0,0,0,0,0,0,0,0,0,0.2431,0.2394,0.2462,0.2483,0.2485,0.2513,0.2513,0.2514,0.2541,0.2541,0.2541,0.2541,0.2594,0.2596,0.2598,0.261,0,0,0.2605,0.2605,0,0,0,0,0,0,0,0,0.2428,0.2433,0.2479,0.2481,0.2484,0.2521,0.2509,0.2546,0.2541,0.252,0.2541,0.2541,0.257,0.2574,0.2584,0.2612,0.2614,0.2605,0.2606,0.2607,0.2608,0,0,0,0,0,0,0,0.2426,0.2431,0.2482,0.248,0.2483,0.2491,0.2496,0.2516,0.2544,0.2522,0.2524,0.2529,0.2572,0.2582,0.2585,0.2615,0.2605,0.2607,0.2608,0.2609,0.2658,0.2658,0,0,0,0,0,0,0.2419,0.2429,0.2481,0.2484,0.2456,0.2492,0.2498,0.2509,0.2544,0.2549,0.2529,0.253,0.2578,0.2583,0.2587,0.2604,0.2607,0.2609,0.261,0.2658,0.2658,0.2658,0,0,0,0,0,0,0.2418,0.2424,0.2479,0.2457,0.2464,0.2493,0.2505,0.251,0.252,0.255,0.2555,0.2534,0.2578,0.2584,0.2604,0.2606,0.261,0.2612,0.2658,0.2658,0.2658,0.2637,0,0,0,0,0,0,0.2416,0.2423,0.2426,0.2457,0.2465,0.2493,0.2505,0.2511,0.2523,0.2525,0.2556,0.2561,0.2579,0.2601,0.2606,0.2609,0.2613,0.2658,0.2658,0.2658,0.2637,0.2636,0.2635,0,0,0,0,0,0.2413,0.2419,0.2427,0.2433,0.247,0.2493,0.2499,0.2519,0.2523,0.2528,0.2547,0.256,0.2605,0.2603,0.2609,0.2613,0.2657,0.2658,0.2658,0.2638,0.2636,0.2635,0,0,0,0,0,0,0.2388,0.2423,0.2432,0.2447,0.2467,0.2498,0.2504,0.2516,0.2536,0.2537,0.2562,0.2569,0.2587,0.2602,0.2598,0.2627,0.2633,0.2634,0.2616,0.2615,0.2613,0.2609,0.2615,0,0,0,0,0,0.2384,0.2399,0.2429,0.244,0.2449,0.2475,0.2486,0.25,0.2522,0.253,0.2551,0.2573,0.2592,0.2604,0.2624,0.264,0.2648,0.2646,0.2645,0.2644,0.2645,0.2656,0.2656,0.2658,0.2658,0.2658,0,0,0.2376,0.2397,0.2405,0.2435,0.2452,0.2468,0.2482,0.2498,0.251,0.2533,0.2553,0.2569,0.2595,0.2614,0.2623,0.2627,0.2646,0.2644,0.2643,0.2644,0.2656,0.2656,0.2656,0.2658,0.2658,0.2658,0,0,0.2371,0.2388,0.2399,0.2416,0.2442,0.2459,0.2462,0.2492,0.2503,0.2524,0.2542,0.2558,0.259,0.2608,0.2622,0.2625,0.2638,0.2631,0.2625,0.2636,0.2636,0.2636,0.2638,0.2639,0.2632,0.2632,0.2632,0,0.2358,0.2382,0.2403,0.2419,0.2432,0.2454,0.2467,0.2482,0.2513,0.2523,0.2527,0.2569,0.2588,0.2612,0.2613,0.2623,0.2628,0.2627,0.2634,0.2634,0.2635,0.2637,0.2638,0.2631,0.2631,0.2631,0.2631,0,0.2366,0.2382,0.2389,0.2418,0.2432,0.2446,0.2471,0.2483,0.2497,0.2515,0.2536,0.256,0.2585,0.2592,0.2605,0.2619,0.2621,0.2629,0.2636,0.2633,0.2636,0.2637,0.2629,0.263,0.263,0.263,0,0,0.2344,0.2386,0.2388,0.2403,0.2434,0.2448,0.2464,0.2488,0.2499,0.252,0.2535,0.2563,0.2571,0.2587,0.2603,0.2612,0.2616,0.262,0.2621,0.2619,0.2633,0.2627,0.2628,0.2624,0.2625,0.2625,0.2631,0,0.2343,0.2371,0.2392,0.2413,0.243,0.2452,0.2466,0.2487,0.2505,0.2522,0.2542,0.2562,0.2571,0.2581,0.2591,0.2613,0.2619,0.2613,0.264,0.264,0.2632,0.2629,0.2622,0.2627,0.2633,0.2633,0.2633,0,0.2345,0.2365,0.2388,0.2419,0.2427,0.2439,0.2464,0.2481,0.2506,0.2518,0.2537,0.2553,0.2573,0.2578,0.2607,0.2602,0.2615,0.2627,0.2628,0.2631,0.2636,0.2633,0.2628,0.2629,0.2635,0.2635,0.2635,0,0.2327,0.2361,0.2379,0.2391,0.2427,0.2436,0.2452,0.2477,0.2492,0.2514,0.2524,0.2549,0.2562,0.2582,0.2606,0.2607,0.2632,0.2639,0.2644,0.2643,0.2647,0.2647,0.2646,0.2655,0.2655,0.2655,0.2655,0,0.2324,0.2337,0.2372,0.2383,0.24,0.2425,0.244,0.2458,0.2482,0.2498,0.2519,0.2534,0.2564,0.2583,0.2602,0.2624,0.2629,0.2641,0.2646,0.2639,0.2638,0.2647,0.2648,0.2655,0.2655,0.2655,0.2655,0,0.2306,0.233,0.2352,0.2386,0.2395,0.2405,0.2434,0.2447,0.2466,0.2487,0.2493,0.2524,0.2548,0.2574,0.2606,0.2619,0.264,0.2646,0.2631,0.2634,0.2637,0.2637,0.2642,0.2645,0.2652,0.2652,0.2652,0,0.2302,0.2313,0.2348,0.2361,0.2376,0.2395,0.241,0.2436,0.2451,0.2482,0.2492,0.2517,0.2539,0.2577,0.2603,0.2628,0.2636,0.2637,0.264,0.2634,0.2637,0.2636,0.2638,0.2635,0.2635,0.2635,0.2635,0,0.2293,0.2305,0.2325,0.235,0.2367,0.2388,0.241,0.2419,0.245,0.2466,0.2491,0.2508,0.2542,0.2568,0.2597,0.2615,0.263,0.2633,0.2636,0.2629,0.262,0.2626,0.2628,0.2633,0.2633,0.2633,0.2633,0.2633,0.2283,0.2294,0.2321,0.2344,0.2363,0.2384,0.2398,0.2419,0.244,0.2469,0.2484,0.2509,0.2537,0.2578,0.2596,0.2617,0.2621,0.2625,0.2626,0.2626,0.2625,0.2617,0.2622,0.2622,0.2622,0.2622,0.2622,0,0.2276,0.2294,0.2315,0.2345,0.2363,0.2376,0.2402,0.2417,0.2438,0.2463,0.2484,0.2514,0.2539,0.2568,0.2596,0.2607,0.2615,0.2614,0.2613,0.2617,0.2619,0.2614,0.2607,0.2607,0.2607,0.2607,0.2607,0.2607,0.2274,0.2294,0.2309,0.234,0.236,0.2384,0.2398,0.2418,0.2437,0.2469,0.2491,0.2509,0.2536,0.2566,0.2591,0.2599,0.2609,0.2605,0.2615,0.2616,0.2617,0.2618,0.2614,0.2607,0.2607,0.2612,0.2612,0.2612]},{"header":{"parameterUnit":"m.s-1","parameterCategory":1,"la1":30.2991,"la2":30.254,"lo1":-89.0895,"lo2":-89.0444,"dy":0.0017,"dx":0.0017,"nx":28,"ny":28,"refTime":"2023-03-27T15:00:00:Z","depth":0,"parameterNumber":3,"parameterNumberName":"V-component_of_WINDS"},"data":[0,0,0,0,0,0,0,0,0,0,0,0,0,0,0,0,0,0,0,0,0,0,0,0,0,0,0,0,0,0,0,0,0,0,0,0,0,0,0,0,0,0,0,0,0,0,0,0,0,0,0,0,0,0,0,0,0,0,2.6948,2.6947,0,2.6919,2.6919,2.6918,2.6882,2.6881,2.6881,2.688,2.685,2.685,2.685,0,0,0,0,0,0,0,0,0,0,0,0,0,2.6971,2.6971,2.6948,2.6947,2.6947,2.6919,2.6919,2.6918,2.6882,2.6881,2.688,2.688,2.685,2.685,2.685,0,0,0,0,0,0,0,0,0,0,0,0,0,2.6953,2.6971,2.6948,2.6925,2.6923,2.6919,2.6919,2.6918,2.6882,2.6881,2.688,2.6879,2.685,2.685,2.685,2.6865,0,0,2.6849,2.6848,0,0,0,0,0,0,0,0,2.6955,2.6953,2.6929,2.6927,2.6924,2.6903,2.6916,2.69,2.6882,2.6898,2.688,2.6879,2.6868,2.6867,2.6863,2.6864,2.6862,2.6849,2.6848,2.6848,2.6848,0,0,0,0,0,0,0,2.6956,2.6954,2.6936,2.6929,2.6926,2.6917,2.6913,2.6913,2.6888,2.6896,2.6893,2.6891,2.6867,2.6864,2.6862,2.6862,2.6849,2.6848,2.6848,2.6848,2.6875,2.6876,0,0,0,0,0,0,2.696,2.6955,2.6937,2.6935,2.6938,2.6917,2.6913,2.6911,2.6888,2.6884,2.6891,2.6889,2.6865,2.6863,2.6861,2.6878,2.6848,2.6848,2.6848,2.6874,2.6875,2.6876,0,0,0,0,0,0,2.6961,2.6959,2.6938,2.6944,2.6941,2.6918,2.6915,2.6911,2.6907,2.6885,2.688,2.6892,2.6864,2.6861,2.6865,2.6877,2.6848,2.6847,2.6873,2.6874,2.6876,2.6913,0,0,0,0,0,0,2.6962,2.696,2.6965,2.6945,2.6941,2.6942,2.6916,2.6911,2.6907,2.6903,2.6884,2.688,2.6863,2.6865,2.6864,2.6876,2.6847,2.6872,2.6874,2.6875,2.691,2.6915,2.6919,0,0,0,0,0,2.6963,2.6976,2.6965,2.6963,2.6947,2.6943,2.6941,2.6921,2.6908,2.6913,2.6899,2.6881,2.6876,2.6866,2.6864,2.6876,2.6871,2.6873,2.6875,2.6908,2.6914,2.6919,0,0,0,0,0,0,2.6997,2.6973,2.6961,2.6968,2.6958,2.6937,2.6943,2.6928,2.6921,2.6918,2.6893,2.6889,2.6896,2.6886,2.6876,2.689,2.6871,2.6873,2.6896,2.6902,2.6906,2.6909,2.6847,0,0,0,0,0,2.7006,2.7005,2.6983,2.6992,2.6987,2.6966,2.6964,2.6949,2.6938,2.6933,2.6919,2.6909,2.6905,2.6903,2.6898,2.6909,2.6905,2.6916,2.6921,2.6925,2.6926,2.6933,2.6938,2.6883,2.6883,2.6883,0,0,2.7023,2.701,2.701,2.6998,2.6989,2.6989,2.6963,2.6963,2.6963,2.6933,2.6936,2.6925,2.6912,2.692,2.6922,2.6912,2.6941,2.6927,2.693,2.693,2.6935,2.6941,2.6945,2.6885,2.6884,2.6884,0,0,2.7055,2.7044,2.7051,2.7042,2.7029,2.7015,2.7016,2.6998,2.699,2.6992,2.6971,2.697,2.6964,2.6955,2.6951,2.6981,2.6965,2.698,2.7004,2.701,2.7015,2.7018,2.703,2.7035,2.6982,2.6982,2.6982,0,2.7078,2.7077,2.7056,2.7058,2.7054,2.7028,2.7035,2.7027,2.7013,2.701,2.6999,2.6992,2.6981,2.6987,2.6994,2.6991,2.6993,2.6982,2.7016,2.7019,2.7023,2.7033,2.7038,2.6984,2.6984,2.6984,2.6984,0,2.7106,2.7106,2.7113,2.71,2.7097,2.7101,2.7081,2.708,2.7067,2.7054,2.7058,2.7044,2.7037,2.7037,2.7023,2.7041,2.7035,2.702,2.7,2.703,2.704,2.7044,2.6987,2.6987,2.6986,2.6986,0,0,2.7157,2.7135,2.7138,2.7132,2.7116,2.7116,2.7119,2.7113,2.7113,2.7104,2.7107,2.7103,2.7089,2.7084,2.7069,2.7075,2.7101,2.7059,2.7059,2.7068,2.7122,2.7133,2.7139,2.7091,2.7091,2.7092,2.7123,0,2.7186,2.7191,2.7174,2.7184,2.7183,2.716,2.7163,2.7154,2.7143,2.7142,2.7129,2.7127,2.7109,2.7106,2.711,2.7097,2.7112,2.7095,2.7093,2.7094,2.7098,2.7144,2.7155,2.7186,2.7127,2.7127,2.7128,0,2.722,2.7214,2.7225,2.721,2.7209,2.7212,2.7205,2.7204,2.7194,2.7185,2.718,2.7164,2.7167,2.7148,2.7153,2.7141,2.714,2.7134,2.7134,2.7134,2.7113,2.7144,2.7195,2.7199,2.7134,2.7133,2.7133,0,2.7258,2.7252,2.7258,2.7254,2.7236,2.724,2.7232,2.7221,2.7219,2.7213,2.7211,2.7206,2.7203,2.7199,2.7182,2.717,2.7189,2.7168,2.7183,2.7183,2.7188,2.7188,2.7239,2.7186,2.7186,2.7186,2.7186,0,2.7292,2.7299,2.7275,2.7278,2.7286,2.7266,2.7274,2.7265,2.7255,2.7257,2.7236,2.7238,2.7215,2.7215,2.7202,2.7208,2.7207,2.72,2.7197,2.7202,2.7203,2.7201,2.7199,2.7187,2.7187,2.7187,2.7187,0,2.7334,2.7318,2.7323,2.7307,2.7303,2.731,2.7295,2.7298,2.7287,2.7289,2.7289,2.727,2.7269,2.7251,2.7246,2.7237,2.7249,2.7241,2.7253,2.7251,2.7266,2.7265,2.7318,2.7324,2.7268,2.7268,2.7269,0,2.7357,2.7362,2.7347,2.7347,2.7341,2.7341,2.7339,2.732,2.7318,2.7308,2.7313,2.731,2.7306,2.7306,2.7292,2.7288,2.728,2.7299,2.728,2.7286,2.7282,2.7282,2.7283,2.7303,2.7304,2.7305,2.7305,0,2.74,2.7392,2.739,2.7386,2.7384,2.7379,2.7374,2.7375,2.7354,2.7354,2.7352,2.735,2.7346,2.7343,2.7337,2.733,2.7315,2.7312,2.7315,2.7321,2.7327,2.7325,2.7265,2.731,2.731,2.7309,2.7309,2.7309,2.7433,2.7438,2.7428,2.7427,2.7421,2.7416,2.7419,2.7408,2.7407,2.7402,2.7391,2.7392,2.7383,2.7373,2.7368,2.7368,2.7359,2.7363,2.7364,2.7366,2.7369,2.7327,2.7367,2.7367,2.7367,2.7367,2.7366,0,2.7475,2.7469,2.7468,2.7461,2.746,2.7446,2.744,2.744,2.7441,2.7434,2.7432,2.7432,2.743,2.7417,2.7414,2.7417,2.741,2.7417,2.7416,2.7415,2.7378,2.7376,2.7423,2.7423,2.7423,2.7423,2.7423,2.7423,2.7497,2.7504,2.7496,2.75,2.7492,2.7494,2.7491,2.7487,2.7482,2.7483,2.7481,2.7473,2.7464,2.746,2.7458,2.7454,2.7455,2.7464,2.7458,2.7423,2.7418,2.7413,2.741,2.7464,2.7464,2.7496,2.7496,2.7496]}]]